(42847) = 1999 RC43

Discovered at Siding Spring on 1999-09-11 by R. H. McNaught.

Orbit

Orbit type: Main Belt

Note: WebGL enabled browser required.

epoch2023-09-13.0
epoch JD2460200.5
perihelion date2023-03-28.30555
perihelion JD2460031.80555
argument of perihelion (°)262.77141
ascending node (°)6.18977
inclination (°)22.65335
eccentricity0.2585108
perihelion distance (AU)1.6837074
Tisserand w.r.t. Jupiter3.5
ΔV w.r.t. Earth (km/sec)10.5
semimajor axis (AU)2.2707108
mean anomaly (°)48.59168
mean daily motion (°/day)0.28804550
aphelion distance (AU)2.858
period (years)3.42
P-vector [x]-0.02638191
P-vector [y]-0.69553317
P-vector [z]-0.71800948
Q-vector [x]0.99878897
Q-vector [y]0.01149832
Q-vector [z]-0.04783701
absolute magnitude14.16
phase slope0.15
uncertainty0
referenceMPEC 2024-A55
observations used3068
oppositions20
arc length (days)17705
first opposition used1975
last opposition used2024
residual rms (arc-secs)0.58
perturbers coarse indicatorM-v
perturbers precise indicator003Ek
first observation date used1975-07-16.0
last observation date used2024-01-05.0
computer nameMPCLINUX
JD of orbit computation2456966.909328
perihelion JD uncertainty (days)7.1474E-05
argument of perihelion uncertainty (°)1.8254E-05
ascending node uncertainty (°)9.0795E-06
inclination uncertainty (°)6.7559E-06
eccentricity uncertainty 3.0099E-08
perihelion distance uncertainty (AU)6.7701E-08
Minimum Orbit Intersection Distances (in AU)
for orbit epoch: 2460200.5, reference: E2024-A55
Mercury1.24984
Venus1.04357
Earth0.8274
Mars0.37068
Jupiter2.55596
Saturn6.53174
Uranus16.0628
Neptune27.3246

Observations

3059 total observations over interval: 1975 07 16.72572 – 2024 01 05.261325
These data are available for download (format description).

Date (UT) J2000 RA J2000 Dec Magn Location Ref
1975 07 16.72572 23 14 49.64 -49 25 35.7   260 – Siding Spring Observatory-DSS MPS 56902
1975 07 16.76044 23 14 47.98 -49 25 41.7   260 – Siding Spring Observatory-DSS MPS 56902
1982 11 05.41077 23 10 14.85 -03 53 44.8   260 – Siding Spring Observatory-DSS MPS 56902
1982 11 05.45244 23 10 14.58 -03 53 20.7   260 – Siding Spring Observatory-DSS MPS 56902
1999 08 03.40609 23 44 22.227 -36 42 13.28 15.05 J I02 – Cerro Tololo Observatory, La Serena--2MASS MPS 81182
1999 09 11.49133 22 39 50.01 -31 48 07.2 16.5 V 413 – Siding Spring Observatory MPS 6208
1999 09 11.55383 22 39 44.40 -31 47 15.4   413 – Siding Spring Observatory MPS 6208
1999 09 14.68762 22 35 04.99 -30 58 36.9 16.9 R 413 – Siding Spring Observatory MPS 6208
1999 09 14.69050 22 35 04.75 -30 58 34.1 17.0 R 413 – Siding Spring Observatory MPS 6208
1999 09 18.66681 22 29 45.87 -29 53 24.0 17.1 R 413 – Siding Spring Observatory MPS 6208
1999 09 18.66799 22 29 45.78 -29 53 22.8 17.2 R 413 – Siding Spring Observatory MPS 6208
1999 09 29.18978 22 19 09.39 -26 48 52.1 16.9   704 – Lincoln Laboratory ETS, New Mexico MPS 6800
1999 09 29.20482 22 19 08.61 -26 48 36.8 17.2   704 – Lincoln Laboratory ETS, New Mexico MPS 6800
1999 09 29.21986 22 19 07.89 -26 48 18.3 17.3   704 – Lincoln Laboratory ETS, New Mexico MPS 6800
1999 09 29.23510 22 19 07.18 -26 48 02.2 17.6   704 – Lincoln Laboratory ETS, New Mexico MPS 6800
1999 09 29.25027 22 19 06.38 -26 47 46.3 17.2   704 – Lincoln Laboratory ETS, New Mexico MPS 6800
1999 09 30.16397 22 18 26.04 -26 31 15.8 17.2   704 – Lincoln Laboratory ETS, New Mexico MPS 6800
1999 09 30.18000 22 18 25.29 -26 30 58.6 17.4   704 – Lincoln Laboratory ETS, New Mexico MPS 6800
1999 09 30.19464 22 18 24.59 -26 30 42.6 16.8   704 – Lincoln Laboratory ETS, New Mexico MPS 6800
1999 09 30.19607 22 18 24.55 -26 30 40.9 17.7   704 – Lincoln Laboratory ETS, New Mexico MPS 6800
1999 09 30.20933 22 18 23.91 -26 30 26.5 16.9   704 – Lincoln Laboratory ETS, New Mexico MPS 6800
1999 09 30.21188 22 18 23.85 -26 30 23.6 17.6   704 – Lincoln Laboratory ETS, New Mexico MPS 6800
1999 09 30.22393 22 18 23.25 -26 30 10.2 16.7   704 – Lincoln Laboratory ETS, New Mexico MPS 6800
1999 09 30.22775 22 18 23.10 -26 30 06.5 17.8   704 – Lincoln Laboratory ETS, New Mexico MPS 6800
1999 09 30.23869 22 18 22.52 -26 29 54.4 17.4   704 – Lincoln Laboratory ETS, New Mexico MPS 6800
1999 09 30.25334 22 18 21.91 -26 29 38.7 16.9   704 – Lincoln Laboratory ETS, New Mexico MPS 6800
1999 10 07.44495 22 14 22.70 -24 18 51.6 17.3 R 413 – Siding Spring Observatory MPS 6800
1999 10 07.44687 22 14 22.64 -24 18 49.5 17.3 R 413 – Siding Spring Observatory MPS 6800
1999 10 14.17057 22 12 39.71 -22 17 26.4 17.3 R 699 – Lowell Observatory-LONEOS MPS 11960
1999 10 14.18329 22 12 39.54 -22 17 12.3   699 – Lowell Observatory-LONEOS MPS 11960
1999 10 14.19601 22 12 39.47 -22 16 59.1   699 – Lowell Observatory-LONEOS MPS 11960
1999 10 15.58701 22 12 31.52 -21 51 57.8 17.7 R 413 – Siding Spring Observatory MPS 6800
1999 10 15.58896 22 12 31.53 -21 51 55.2   413 – Siding Spring Observatory MPS 6800
1999 11 02.40137 22 16 42.51 -16 44 55.1 18.3 R 413 – Siding Spring Observatory MPS 7341
1999 11 02.40404 22 16 42.57 -16 44 52.3 18.2 R 413 – Siding Spring Observatory MPS 7341
1999 11 09.07447 22 20 34.38 -14 56 00.7 18.3 R 699 – Lowell Observatory-LONEOS MPS 8525
1999 11 09.09990 22 20 35.31 -14 55 36.4   699 – Lowell Observatory-LONEOS MPS 8525
1999 11 09.12534 22 20 36.31 -14 55 13.0   699 – Lowell Observatory-LONEOS MPS 8525
1999 11 10.06852 22 21 14.19 -14 40 03.3 18.2   704 – Lincoln Laboratory ETS, New Mexico MPS 7341
1999 11 10.08473 22 21 14.83 -14 39 47.6 18.2   704 – Lincoln Laboratory ETS, New Mexico MPS 7341
1999 11 10.10090 22 21 15.49 -14 39 33.0 19.1   704 – Lincoln Laboratory ETS, New Mexico MPS 7341
1999 11 10.11709 22 21 16.10 -14 39 16.6 18.8   704 – Lincoln Laboratory ETS, New Mexico MPS 7341
1999 11 10.13330 22 21 16.74 -14 39 00.8 18.7   704 – Lincoln Laboratory ETS, New Mexico MPS 7341
2000 12 05.28959 05 56 35.78 +56 00 13.8 18.7   704 – Lincoln Laboratory ETS, New Mexico MPS 23636
2000 12 05.30493 05 56 34.07 +56 00 17.1 19.4   704 – Lincoln Laboratory ETS, New Mexico MPS 23636
2000 12 05.32044 05 56 32.29 +56 00 21.6 18.9   704 – Lincoln Laboratory ETS, New Mexico MPS 23636
2000 12 05.33586 05 56 30.79 +56 00 26.7 18.7   704 – Lincoln Laboratory ETS, New Mexico MPS 23636
2000 12 05.35122 05 56 29.14 +56 00 30.7 18.6   704 – Lincoln Laboratory ETS, New Mexico MPS 23636
2000 12 15.28794 05 38 54.22 +56 28 26.1 18.5   704 – Lincoln Laboratory ETS, New Mexico MPS 23636
2000 12 15.30320 05 38 52.42 +56 28 26.4 18.4   704 – Lincoln Laboratory ETS, New Mexico MPS 23636
2000 12 15.31844 05 38 50.68 +56 28 27.5 18.5   704 – Lincoln Laboratory ETS, New Mexico MPS 23636
2000 12 15.33367 05 38 48.93 +56 28 28.2 18.6   704 – Lincoln Laboratory ETS, New Mexico MPS 23636
2000 12 15.34893 05 38 47.30 +56 28 29.0 18.4   704 – Lincoln Laboratory ETS, New Mexico MPS 23636
2000 12 16.30513 05 37 02.27 +56 29 13.4 18.4   704 – Lincoln Laboratory ETS, New Mexico MPS 23636
2000 12 16.32088 05 37 00.46 +56 29 13.0 18.3   704 – Lincoln Laboratory ETS, New Mexico MPS 23636
2000 12 16.33675 05 36 58.74 +56 29 14.7 18.6   704 – Lincoln Laboratory ETS, New Mexico MPS 23636
2000 12 16.35246 05 36 57.02 +56 29 15.3 18.2   704 – Lincoln Laboratory ETS, New Mexico MPS 23636
2000 12 17.28786 05 35 14.10 +56 29 37.1 18.4   704 – Lincoln Laboratory ETS, New Mexico MPS 23636
2000 12 17.29124 05 35 13.82 +56 29 37.1 19.0   704 – Lincoln Laboratory ETS, New Mexico MPS 23636
2000 12 17.30309 05 35 12.53 +56 29 37.8 18.8   704 – Lincoln Laboratory ETS, New Mexico MPS 23636
2000 12 17.30646 05 35 12.13 +56 29 37.4 19.6   704 – Lincoln Laboratory ETS, New Mexico MPS 23636
2000 12 17.31831 05 35 10.80 +56 29 38.1 18.7   704 – Lincoln Laboratory ETS, New Mexico MPS 23636
2000 12 17.32169 05 35 10.46 +56 29 37.0 18.8   704 – Lincoln Laboratory ETS, New Mexico MPS 23636
2000 12 17.33498 05 35 08.94 +56 29 38.6 18.6   704 – Lincoln Laboratory ETS, New Mexico MPS 23636
2000 12 17.33836 05 35 08.53 +56 29 37.1 19.1   704 – Lincoln Laboratory ETS, New Mexico MPS 23636
2000 12 17.35046 05 35 07.21 +56 29 38.9 18.7   704 – Lincoln Laboratory ETS, New Mexico MPS 23636
2000 12 17.35384 05 35 07.03 +56 29 35.7 18.7   704 – Lincoln Laboratory ETS, New Mexico MPS 23636
2000 12 19.29383 05 31 33.93 +56 29 18.7 18.4   704 – Lincoln Laboratory ETS, New Mexico MPS 23636
2000 12 19.30907 05 31 32.23 +56 29 18.9 18.8   704 – Lincoln Laboratory ETS, New Mexico MPS 23636
2000 12 19.32432 05 31 30.53 +56 29 18.1 18.3   704 – Lincoln Laboratory ETS, New Mexico MPS 23636
2000 12 19.33958 05 31 28.83 +56 29 18.4 18.4   704 – Lincoln Laboratory ETS, New Mexico MPS 23636
2000 12 19.35484 05 31 27.06 +56 29 17.8 18.6   704 – Lincoln Laboratory ETS, New Mexico MPS 23636
2000 12 21.29217 05 27 56.12 +56 27 29.9 18.8   704 – Lincoln Laboratory ETS, New Mexico MPS 23636
2000 12 21.30745 05 27 54.29 +56 27 28.2 19.0   704 – Lincoln Laboratory ETS, New Mexico MPS 23636
2000 12 21.32401 05 27 52.47 +56 27 28.0 19.4   704 – Lincoln Laboratory ETS, New Mexico MPS 23636
2000 12 21.33930 05 27 50.86 +56 27 25.7 19.0   704 – Lincoln Laboratory ETS, New Mexico MPS 23636
2000 12 21.35466 05 27 49.09 +56 27 24.5 19.4   704 – Lincoln Laboratory ETS, New Mexico MPS 23636
2001 02 12.11915 04 44 00.33 +50 18 58.9 19.5   704 – Lincoln Laboratory ETS, New Mexico MPS 26449
2001 02 12.13280 04 44 00.52 +50 18 52.5 19.5   704 – Lincoln Laboratory ETS, New Mexico MPS 26449
2001 02 12.14649 04 44 00.86 +50 18 45.6 19.2   704 – Lincoln Laboratory ETS, New Mexico MPS 26449
2001 12 13.45138 12 37 15.30 +06 44 58.8 19.3   704 – Lincoln Laboratory ETS, New Mexico MPS 43113
2001 12 13.46667 12 37 16.30 +06 44 50.0 19.2   704 – Lincoln Laboratory ETS, New Mexico MPS 43113
2001 12 13.48193 12 37 17.46 +06 44 41.0 19.3   704 – Lincoln Laboratory ETS, New Mexico MPS 43113
2001 12 13.49721 12 37 18.50 +06 44 31.2 19.4   704 – Lincoln Laboratory ETS, New Mexico MPS 43113
2001 12 17.47171 12 42 06.18 +06 03 02.0 18.7   704 – Lincoln Laboratory ETS, New Mexico MPS 43113
